Temp
-7 -7 -7 -7 -7 -7 -8 -7 -6 -7 -7 -5 -6 -6 -7 -7 -7 -6 -6 -6 -6 -7 -7 -6 -6 -7 -7 -7 -7 -7 -7 -7 -7 -7 -7 -7 -8 -8 -8 -7 -7 -7 -7 -7
-7 -7 -9 -9 -8 -9 -8 -8 -9 -9 -7 -6 -7 -5 -7 -7 -7 -6 -7 -7 -7 -7 -7 -7 -6 -7 -7 -7 -6 -7 -7 -7 -7 -7 -7 -8 -8 -8 -8 -8 -7 -7 -7 -7
-8 -10 -9 -10 -10 -10 -9 -9 -8 -7 -7 -8 -7 -7 -6 -6 -6 -7 -6 -7 -7 -7 -7 -7 -7 -6 -7 -7 -7 -7 -7 -7 -7 -7 -6 -7 -7 -8 -8 -8 -7 -7 -6 -7
-9 -10 -10 -9 -9 -10 -9 -9 -9 -8 -7 -7 -8 -7 -8 -7 -6 -6 -6 -6 -6 -6 -6 -6 -6 -7 -7 -7 -7 -7 -7 -7 -7 -7 -7 -7 -7 -8 -8 -8 -7 -7 -6 -7
-9 -8 -9 -10 -9 -10 -10 -8 -8 -9 -8 -7 -8 -8 -7 -6 -6 -7 -7 -7 -6 -6 -6 -6 -7 -7 -7 -7 -6 -7 -7 -7 -7 -7 -7 -7 -7 -7 -7 -7 -7 -7 -6 -6
-10 -11 -9 -10 -10 -10 -10 -9 -8 -9 -9 -9 -8 -8 -7 -7 -8 -8 -8 -7 -7 -6 -5 -6 -6 -6 -8 -6 -6 -6 -6 -7 -7 -7 -7 -7 -7 -8 -7 -7 -7 -7 -7 -7
-9 -10 -9 -9 -10 -9 -8 -10 -9 -8 -9 -8 -8 -9 -9 -8 -9 -8 -7 -7 -7 -6 -6 -6 -6 -5 -7 -7 -6 -6 -6 -6 -7 -7 -7 -7 -7 -7 -7 -7 -7 -6 -7 -6
-10 -10 -8 -9 -9 -10 -9 -10 -9 -8 -8 -7 -8 -9 -8 -8 -8 -8 -8 -6 -6 -6 -7 -7 -7 -7 -8 -7 -6 -7 -6 -6 -6 -6 -6 -6 -6 -6 -7 -7 -7 -6 -6 -6
-9 -9 -9 -9 -9 -10 -9 -9 -9 -8 -9 -9 -9 -9 -8 -8 -7 -8 -7 -6 -6 -6 -6 -7 -7 -8 -7 -6 -7 -7 -6 -5 -6 -6 -6 -6 -6 -6 -7 -7 -6 -6 -6 -5
-9 -10 -9 -10 -9 -9 -10 -10 -9 -8 -8 -8 -8 -8 -9 -9 -8 -8 -7 -7 -8 -7 -6 -6 -7 -6 -6 -6 -5 -6 -6 -6 -5 -6 -6 -6 -6 -7 -6 -7 -6 -6 -5 -7
-10 -9 -10 -10 -9 -9 -9 -8 -9 -9 -9 -9 -8 -9 -9 -8 -8 -8 -7 -7 -8 -8 -7 -6 -6 -7 -6 -6 -7 -6 -7 -6 -7 -6 -6 -6 -6 -6 -6 -6 -6 -6 -5 -6
-9 -10 -9 -9 -10 -10 -10 -9 -9 -8 -9 -8 -9 -9 -9 -7 -8 -8 -7 -8 -9 -8 -8 -7 -7 -6 -6 -6 -7 -7 -5 -6 -6 -6 -5 -6 -6 -6 -7 -6 -6 -6 -5 -5
-10 -9 -10 -9 -9 -10 -9 -9 -9 -9 -9 -8 -8 -8 -8 -8 -8 -8 -6 -7 -8 -7 -8 -8 -8 -7 -6 -7 -6 -7 -7 -6 -5 -6 -5 -5 -6 -6 -6 -6 -7 -6 -6 -6
-10 -10 -10 -9 -9 -10 -10 -9 -8 -9 -9 -9 -9 -9 -8 -8 -7 -7 -7 -7 -7 -8 -8 -8 -7 -7 -7 -7 -7 -7 -6 -6 -6 -6 -5 -5 -6 -6 -6 -6 -6 -7 -7 -7
-9 -10 -10 -10 -10 -9 -10 -10 -10 -10 -9 -9 -10 -9 -9 -8 -9 -7 -8 -7 -7 -7 -8 -8 -8 -8 -7 -7 -7 -7 -7 -6 -5 -5 -6 -6 -5 -6 -7 -6 -6 -7 -7 -7
-10 -9 -10 -10 -10 -9 -10 -10 -10 -10 -10 -9 -10 -10 -8 -9 -8 -8 -7 -8 -8 -7 -7 -8 -8 -8 -7 -7 -6 -6 -6 -7 -7 -7 -7 -5 -6 -6 -6 -7 -6 -6 -6 -6
-10 -9 -11 -10 -10 -9 -10 -10 -10 -10 -10 -10 -10 -10 -10 -9 -9 -8 -8 -9 -8 -8 -8 -7 -7 -8 -7 -7 -6 -6 -6 -6 -8 -7 -6 -4 -6 -7 -7 -6 -6 -6 -6 -6
-11 -10 -11 -11 -10 -10 -9 -10 -11 -10 -11 -11 -10 -11 -11 -8 -7 -8 -8 -8 -8 -8 -8 -8 -7 -7 -7 -7 -7 -6 -6 -6 -7 -7 -6 -6 -6 -7 -7 -6 -6 -6 -6 -6
-10 -11 -11 -11 -10 -10 -10 -10 -10 -10 -10 -10 -9 -9 -9 -8 -7 -8 -8 -8 -8 -8 -8 -8 -8 -8 -7 -7 -7 -6 -6 -6 -7 -6 -6 -6 -7 -7 -7 -6 -6 -6 -6 -6
-10 -10 -11 -11 -11 -11 -11 -10 -10 -11 -9 -9 -9 -9 -9 -8 -8 -8 -7 -8 -8 -8 -8 -8 -8 -8 -8 -7 -7 -7 -7 -6 -6 -7 -7 -6 -7 -7 -6 -7 -7 -7 -6 -6
-11 -11 -11 -11 -11 -11 -11 -10 -10 -10 -11 -10 -9 -9 -9 -8 -8 -8 -8 -8 -8 -8 -8 -8 -8 -8 -8 -8 -7 -7 -7 -7 -7 -6 -6 -7 -7 -7 -7 -7 -7 -7 -6 -6
-12 -11 -12 -11 -11 -11 -11 -11 -10 -11 -10 -10 -10 -9 -9 -8 -8 -8 -8 -8 -9 -9 -9 -9 -9 -9 -8 -8 -8 -8 -7 -7 -7 -7 -6 -6 -6 -7 -7 -8 -7 -6 -6 -6
-13 -12 -11 -11 -11 -11 -11 -10 -10 -10 -10 -10 -10 -10 -9 -8 -9 -8 -8 -9 -9 -9 -9 -9 -9 -9 -8 -8 -8 -8 -8 -7 -7 -7 -7 -7 -7 -7 -7 -7 -7 -7 -7 -7
-13 -12 -11 -12 -11 -11 -11 -11 -12 -11 -11 -10 -10 -10 -9 -10 -9 -9 -9 -10 -10 -10 -10 -9 -9 -9 -9 -8 -8 -8 -8 -8 -7 -7 -7 -7 -7 -7 -7 -7 -7 -7 -7 -7
-13 -12 -11 -11 -11 -12 -10 -11 -11 -11 -11 -10 -10 -10 -10 -10 -10 -9 -10 -10 -11 -11 -10 -10 -10 -9 -9 -9 -8 -8 -8 -8 -7 -7 -7 -7 -7 -7 -7 -7 -7 -7 -7 -7
-13 -12 -12 -11 -12 -11 -12 -11 -12 -11 -11 -10 -11 -10 -10 -10 -10 -10 -11 -10 -11 -11 -11 -10 -10 -9 -9 -9 -8 -8 -8 -7 -7 -7 -7 -7 -7 -7 -7 -7 -7 -7 -8 -8
Height
5869 5873 5876 5870 5873 5878 5879 5879 5873 5878 5874 5876 5873 5881 5879 5875 5873 5877 5877 5877 5881 5881 5880 5884 5883 5884 5887 5888 5889 5890 5890 5892 5894 5895 5898 5900 5902 5903 5906 5908 5909 5910 5911 5914
5868 5871 5873 5872 5874 5875 5880 5875 5878 5880 5877 5878 5874 5873 5868 5877 5875 5874 5876 5880 5881 5879 5880 5881 5883 5887 5886 5889 5891 5892 5891 5893 5895 5897 5898 5899 5902 5903 5906 5908 5910 5912 5914 5916
5866 5873 5875 5876 5877 5877 5882 5884 5880 5877 5878 5877 5868 5875 5867 5878 5878 5875 5875 5877 5878 5879 5878 5877 5882 5884 5886 5890 5892 5893 5894 5894 5895 5897 5897 5899 5901 5902 5905 5908 5911 5914 5917 5919
5865 5868 5871 5871 5873 5877 5882 5878 5878 5877 5876 5878 5877 5874 5872 5876 5878 5876 5874 5872 5874 5876 5869 5880 5880 5884 5885 5888 5890 5893 5894 5895 5896 5897 5899 5899 5899 5902 5903 5905 5910 5914 5917 5920
5865 5866 5866 5868 5871 5874 5878 5874 5877 5877 5875 5877 5877 5872 5871 5873 5872 5870 5872 5873 5872 5877 5878 5873 5879 5881 5882 5885 5889 5891 5894 5895 5897 5896 5897 5898 5900 5901 5905 5908 5908 5912 5916 5920
5862 5866 5864 5867 5869 5873 5875 5874 5874 5874 5876 5878 5874 5879 5870 5866 5865 5859 5870 5875 5875 5874 5878 5879 5877 5865 5879 5884 5883 5888 5892 5895 5896 5898 5897 5898 5899 5890 5906 5908 5910 5912 5916 5919
5861 5863 5863 5865 5870 5870 5871 5873 5874 5874 5875 5876 5876 5877 5873 5870 5868 5857 5864 5874 5875 5874 5871 5871 5875 5878 5880 5884 5883 5886 5891 5894 5896 5897 5899 5898 5900 5903 5906 5907 5907 5911 5915 5918
5864 5865 5864 5866 5867 5872 5871 5874 5870 5872 5867 5871 5871 5876 5870 5865 5864 5869 5866 5869 5871 5870 5872 5870 5869 5877 5878 5880 5879 5885 5890 5893 5895 5897 5899 5899 5899 5900 5903 5905 5908 5911 5914 5916
5870 5869 5863 5864 5866 5869 5869 5876 5876 5872 5872 5873 5872 5875 5868 5870 5866 5864 5864 5864 5870 5873 5872 5871 5872 5877 5874 5876 5879 5885 5889 5891 5894 5896 5898 5899 5901 5901 5903 5905 5907 5908 5911 5913
5864 5865 5863 5864 5864 5867 5867 5870 5875 5878 5878 5877 5876 5873 5866 5867 5867 5865 5863 5860 5858 5864 5871 5872 5874 5877 5879 5876 5875 5885 5889 5890 5892 5894 5896 5898 5900 5901 5903 5903 5903 5909 5912 5905
5859 5864 5863 5865 5862 5864 5867 5868 5869 5873 5875 5871 5868 5870 5867 5869 5870 5865 5864 5857 5843 5865 5867 5869 5870 5872 5874 5877 5871 5878 5879 5880 5884 5889 5894 5896 5898 5900 5900 5899 5903 5907 5913 5907
5855 5858 5860 5862 5862 5861 5865 5869 5871 5873 5874 5874 5866 5866 5864 5865 5868 5866 5863 5862 5862 5863 5865 5866 5868 5869 5871 5874 5871 5873 5862 5872 5882 5880 5885 5893 5896 5897 5898 5896 5899 5903 5907 5912
5850 5852 5856 5855 5862 5860 5861 5864 5865 5867 5868 5870 5869 5864 5865 5863 5861 5862 5860 5861 5861 5861 5861 5863 5865 5865 5868 5871 5866 5864 5866 5866 5856 5876 5881 5886 5893 5895 5896 5895 5895 5899 5902 5905
5844 5849 5852 5855 5849 5853 5857 5858 5861 5865 5869 5869 5855 5861 5859 5858 5857 5860 5857 5860 5859 5859 5859 5859 5860 5862 5864 5866 5867 5863 5864 5865 5870 5875 5879 5879 5886 5889 5892 5894 5893 5894 5898 5901
5839 5842 5847 5852 5846 5846 5852 5857 5857 5859 5860 5861 5860 5856 5857 5853 5855 5856 5858 5857 5857 5857 5857 5857 5858 5858 5858 5860 5863 5862 5862 5862 5863 5868 5862 5869 5876 5884 5883 5889 5892 5892 5893 5895
5834 5836 5839 5842 5840 5842 5846 5850 5852 5852 5854 5856 5859 5856 5846 5853 5854 5854 5856 5855 5855 5854 5854 5855 5854 5855 5855 5855 5857 5860 5862 5858 5858 5857 5856 5856 5876 5879 5879 5883 5886 5889 5890 5892
5827 5830 5833 5836 5839 5837 5836 5845 5846 5847 5849 5852 5855 5855 5849 5850 5852 5852 5852 5852 5850 5850 5850 5850 5851 5850 5850 5850 5851 5853 5855 5853 5853 5844 5852 5822 5862 5868 5871 5878 5879 5882 5885 5888
5818 5825 5827 5832 5835 5833 5839 5841 5839 5840 5843 5845 5847 5849 5845 5845 5849 5850 5849 5848 5847 5845 5845 5845 5845 5846 5844 5846 5845 5846 5848 5846 5850 5851 5852 5853 5858 5861 5866 5869 5872 5875 5876 5880
5810 5814 5822 5825 5827 5832 5835 5831 5834 5836 5837 5838 5840 5841 5839 5841 5844 5844 5843 5844 5842 5840 5840 5839 5839 5840 5839 5839 5841 5841 5841 5843 5842 5842 5846 5847 5851 5855 5860 5863 5864 5867 5871 5873
5806 5806 5809 5821 5822 5820 5831 5823 5826 5825 5830 5830 5832 5834 5834 5837 5837 5835 5837 5835 5835 5834 5834 5833 5832 5833 5833 5834 5834 5835 5836 5836 5838 5840 5841 5841 5846 5848 5852 5855 5857 5860 5864 5867
5799 5798 5802 5808 5813 5819 5820 5820 5817 5823 5824 5824 5826 5827 5828 5829 5831 5828 5829 5827 5827 5826 5827 5827 5826 5826 5828 5828 5829 5829 5830 5831 5831 5832 5834 5837 5838 5840 5842 5845 5848 5853 5856 5859
5789 5796 5797 5804 5804 5814 5814 5813 5816 5814 5817 5820 5821 5821 5819 5823 5822 5821 5822 5821 5821 5820 5820 5820 5820 5821 5822 5823 5823 5823 5824 5824 5825 5825 5825 5827 5829 5833 5835 5837 5840 5844 5847 5850
5771 5776 5790 5798 5801 5806 5805 5805 5808 5808 5812 5815 5817 5816 5814 5817 5816 5814 5815 5814 5814 5815 5815 5814 5814 5814 5816 5816 5817 5817 5818 5818 5819 5819 5819 5820 5822 5825 5827 5829 5833 5835 5838 5841
5763 5773 5776 5786 5796 5790 5797 5799 5800 5802 5806 5809 5811 5810 5811 5810 5810 5810 5808 5808 5808 5808 5808 5808 5808 5808 5809 5810 5811 5810 5812 5812 5813 5814 5813 5814 5815 5816 5819 5821 5824 5827 5830 5832
5755 5762 5766 5772 5782 5788 5788 5791 5794 5795 5799 5802 5804 5805 5805 5805 5804 5803 5803 5803 5803 5802 5802 5802 5801 5802 5803 5803 5804 5804 5804 5805 5805 5806 5807 5807 5808 5809 5811 5813 5816 5819 5822 5824
5743 5751 5758 5765 5777 5780 5782 5783 5786 5792 5794 5797 5798 5798 5799 5799 5798 5798 5797 5798 5797 5797 5796 5796 5796 5796 5796 5796 5797 5797 5797 5797 5798 5798 5799 5800 5800 5802 5804 5806 5808 5810 5813 5816
Wind_Speed
10 8 10 17 28 17 12 3 7 11 14 2 10 8 4 6 10 13 20 10 9 9 5 5 6 5 4 5 6 9 8 8 6 4 3 8 10 14 14 15 16 19 24 25
10 7 16 19 7 6 10 15 10 12 16 13 18 8 7 5 7 7 11 14 19 13 12 6 3 4 6 3 6 7 9 8 5 3 2 5 9 14 16 13 14 18 23 24
10 2 11 10 13 16 5 11 19 14 13 13 10 14 6 7 8 4 7 12 17 11 11 14 6 6 6 7 6 4 6 6 4 3 4 5 11 17 18 13 14 16 19 21
12 18 15 18 14 11 4 19 15 21 15 7 16 15 21 15 9 9 5 12 12 10 13 7 8 8 9 8 7 6 6 4 4 4 5 7 14 17 20 17 15 15 16 17
10 12 18 13 13 16 10 19 19 19 13 11 10 18 15 15 16 7 5 9 18 14 15 15 9 15 11 10 8 8 7 6 6 6 5 6 8 14 17 17 17 15 14 14
14 15 13 12 8 11 13 7 4 5 2 7 5 10 17 24 32 13 3 3 10 19 14 19 16 21 13 9 11 6 8 9 7 7 8 6 7 6 13 16 17 15 13 12
8 10 8 11 10 9 12 5 9 3 7 12 12 5 18 26 25 10 14 9 8 9 12 21 17 18 21 14 10 8 8 10 10 10 8 7 6 7 12 11 15 16 15 13
3 9 6 3 11 8 1 8 25 19 8 4 13 11 19 22 28 27 24 15 11 3 3 19 22 19 19 12 8 7 12 11 12 11 10 11 9 7 7 11 12 16 16 12
14 9 21 6 13 12 13 7 12 8 14 6 6 9 27 21 24 20 14 16 11 10 3 12 18 17 18 6 7 11 14 12 13 12 11 12 9 10 11 12 15 18 18 14
12 16 17 9 12 16 14 14 7 7 6 10 13 15 19 21 13 23 16 11 14 8 8 8 13 16 14 13 22 13 16 12 12 13 13 14 12 12 13 13 17 17 17 19
17 11 14 13 12 11 10 10 15 11 11 11 17 13 12 17 13 21 16 16 11 8 9 11 11 15 14 11 23 18 19 17 14 14 17 16 16 14 14 17 17 16 16 16
22 14 14 9 14 13 14 7 8 7 9 12 16 7 21 18 21 20 18 13 17 13 10 11 12 15 15 14 23 27 26 25 24 19 18 19 17 16 17 19 18 15 15 19
18 25 18 17 12 13 15 19 15 13 13 13 11 23 26 20 23 23 18 11 14 15 15 14 13 13 13 17 16 19 24 28 23 18 20 18 20 19 19 20 20 18 16 16
25 21 17 21 27 18 15 13 21 13 12 11 10 19 17 20 20 11 18 10 12 12 15 17 17 16 16 16 21 22 20 21 14 21 21 19 23 22 20 20 20 19 17 15
26 27 24 19 20 12 10 8 11 14 23 19 17 15 21 16 16 8 15 17 15 14 13 15 17 19 20 19 19 24 22 19 19 22 23 26 27 24 21 21 21 21 19 19
29 27 33 23 33 21 23 16 15 17 14 28 11 13 21 16 20 27 27 23 20 20 17 15 15 19 21 23 22 24 25 28 29 29 32 25 21 26 21 22 23 22 21 22
31 28 29 28 19 18 17 16 18 20 15 18 16 18 28 30 29 31 27 23 25 24 23 21 19 18 19 23 26 24 26 31 30 29 28 24 28 24 21 26 25 24 23 24
22 30 25 26 24 26 22 14 18 20 18 19 20 20 29 32 19 20 22 22 24 26 26 26 25 21 22 20 24 27 26 31 31 30 25 25 31 32 30 28 24 24 28 27
39 27 26 29 29 22 24 17 24 27 28 25 23 25 31 25 20 23 24 24 27 28 28 28 28 26 25 22 21 24 29 29 29 33 30 26 36 33 36 33 31 27 27 30
41 33 34 26 31 33 19 32 20 21 21 23 22 23 26 21 22 27 23 25 26 27 28 30 29 27 27 25 23 23 25 28 29 26 35 33 32 29 35 35 34 33 30 32
49 28 27 37 28 29 24 33 25 21 21 22 22 20 21 22 20 23 24 27 27 26 26 27 28 28 26 26 25 24 24 25 27 29 29 30 31 30 34 37 36 35 33 32
54 52 34 31 22 29 16 30 28 34 26 23 23 19 22 18 19 24 25 26 24 24 26 27 27 27 27 25 25 26 27 27 26 27 30 33 31 32 34 35 36 34 32 34
50 65 48 40 22 21 38 19 33 35 28 24 22 19 21 18 20 26 25 25 25 23 24 26 27 26 26 26 26 28 28 29 28 28 28 29 32 36 38 34 32 33 34 34
51 48 48 41 40 37 34 39 39 38 25 24 20 18 18 20 22 24 25 23 23 24 24 25 25 26 27 26 26 29 28 28 28 27 28 27 26 31 35 36 35 33 32 31
52 43 39 42 36 39 44 26 30 28 28 26 22 20 20 20 23 24 20 21 23 23 23 23 24 25 26 25 25 27 27 26 26 25 26 26 25 26 29 31 34 35 34 32
61 47 34 46 43 42 42 42 35 30 28 22 22 22 17 19 20 19 19 20 22 21 20 20 22 24 25 26 25 25 26 25 25 25 25 26 27 27 28 30 32 32 31 29
Wind_Direction
229 201 140 218 227 277 305 44 41 296 279 265 322 349 357 315 295 300 213 222 217 205 262 189 152 162 163 204 203 165 166 165 172 168 165 183 177 178 174 167 160 161 161 164
219 205 154 268 274 274 256 334 312 276 283 265 264 277 145 278 294 291 243 244 238 239 216 192 237 189 170 167 162 160 163 157 151 145 149 189 199 192 183 174 169 170 169 172
215 246 206 216 248 256 287 236 262 264 290 283 322 294 204 267 244 273 246 247 257 234 256 206 227 186 182 182 193 197 186 184 152 124 78 155 178 188 182 173 176 179 177 177
220 184 234 232 225 211 235 228 262 288 275 295 317 320 293 308 319 276 279 282 296 263 212 205 226 215 191 206 205 216 230 235 199 155 148 148 166 182 181 174 179 183 186 184
216 231 232 240 211 186 239 262 253 254 249 254 325 336 323 293 269 223 234 280 284 249 272 218 239 216 191 196 207 207 227 238 238 184 169 177 168 180 196 195 180 188 196 199
161 253 243 226 207 208 216 264 183 233 294 272 293 281 287 295 302 177 44 308 273 276 248 226 217 209 215 210 194 223 227 236 237 214 184 189 195 88 190 204 201 196 207 213
225 241 233 193 224 230 196 149 259 244 224 244 241 342 282 279 297 331 320 273 254 287 266 233 198 232 225 209 233 213 242 239 236 226 202 233 229 205 196 195 199 206 216 223
333 262 330 300 162 240 30 177 253 275 3 230 140 262 284 310 308 305 289 271 260 260 210 230 238 217 244 204 186 224 238 244 238 238 227 235 237 219 206 202 203 212 224 218
234 275 269 272 198 222 207 236 290 309 319 330 343 266 281 296 313 321 297 284 268 269 240 212 214 233 252 245 219 224 238 231 240 241 240 234 224 228 208 203 215 213 206 217
171 260 253 229 256 218 204 214 177 255 287 207 223 248 255 281 309 319 306 255 231 240 260 198 210 222 214 256 229 219 240 232 237 241 234 234 218 218 220 224 227 222 219 233
177 207 204 230 259 223 219 224 191 187 245 219 237 219 264 271 313 312 307 287 68 259 232 227 219 221 230 259 242 221 204 217 222 236 247 239 231 221 226 234 240 237 233 266
209 198 259 245 251 251 197 234 221 228 265 233 308 303 278 298 308 307 295 279 275 260 252 248 233 242 240 260 254 246 225 227 239 218 222 244 240 234 227 240 245 244 237 229
231 181 218 215 222 226 233 220 218 224 254 212 212 269 276 293 298 303 289 283 266 268 268 262 251 259 253 234 253 255 253 245 229 225 219 230 242 237 231 234 244 246 243 244
220 201 211 235 212 196 238 263 221 229 239 262 252 241 276 293 296 291 288 298 293 280 272 272 267 260 247 245 244 252 263 251 245 237 232 220 236 237 235 233 235 239 240 244
228 198 193 240 272 194 201 200 221 227 210 222 265 269 263 239 251 275 297 295 295 290 286 277 268 266 264 256 247 249 246 252 251 231 224 224 227 234 229 234 233 233 233 239
234 213 196 217 240 229 224 223 238 244 242 213 243 268 273 259 235 260 285 288 282 284 286 284 279 264 268 260 254 242 242 243 240 229 225 223 219 228 236 239 234 238 238 236
239 222 210 218 247 260 202 251 250 251 241 219 219 245 259 257 258 269 279 274 280 280 279 280 277 276 268 268 260 251 249 245 249 247 247 230 234 229 237 240 234 239 242 244
243 235 210 225 235 242 236 242 233 222 219 228 217 222 253 251 260 255 269 275 278 281 277 275 275 274 272 263 265 259 257 256 253 237 242 237 230 238 233 237 237 245 242 244
210 226 234 218 221 240 223 256 265 268 251 248 245 240 247 262 265 263 268 270 273 275 276 275 273 272 272 269 261 263 257 254 262 261 245 242 236 236 238 237 243 251 252 241
234 225 203 225 228 220 224 234 245 253 257 251 246 247 254 264 269 272 282 280 276 273 270 271 271 266 268 269 269 264 267 268 261 245 250 261 246 233 232 236 246 249 247 245
222 217 240 209 220 230 235 235 252 246 243 258 255 248 255 261 277 278 279 277 278 273 270 266 264 264 263 269 266 269 270 270 271 265 258 251 241 238 242 242 244 246 245 238
215 220 230 217 208 229 233 239 241 247 258 263 258 263 264 274 279 278 280 279 278 274 269 267 265 262 262 266 269 271 273 272 274 269 265 259 256 254 250 252 249 247 250 247
217 217 212 233 231 248 233 222 248 250 258 258 255 261 273 275 276 281 280 280 277 271 268 265 265 263 260 263 266 268 270 272 272 272 266 263 259 255 257 258 262 261 258 255
220 217 213 209 217 240 218 237 239 250 255 260 256 254 264 278 278 273 279 281 279 277 272 269 267 265 264 263 263 266 268 269 270 270 268 265 263 256 253 254 257 260 260 262
214 219 212 206 196 227 231 254 232 248 253 260 258 254 269 271 276 282 277 271 271 274 274 269 267 266 265 262 261 263 267 270 272 271 267 264 260 255 252 252 254 255 256 261
211 214 224 214 203 215 233 215 241 243 256 259 261 260 271 280 282 282 273 276 270 274 276 271 269 266 265 264 262 262 266 269 274 275 270 263 259 256 255 254 252 252 252 252